{"data":{"norad_id":48047,"epoch":"2026-05-25T00:30:23.681088Z","epoch_age_seconds":80025,"freshness":"FRESH","line1":"1 48047U 21025F   26145.02110742  .00000256  00000+0  66591-3 0  9990","line2":"2 48047  87.8948 324.8285 0001971  95.6219 264.5135 13.13468455250509","mean_motion":13.13468455,"eccentricity":0.0001971,"inclination_deg":87.8948,"raan_deg":324.8285,"arg_perigee_deg":95.6219,"mean_anomaly_deg":264.5135,"bstar":0.00066591,"rev_number":25050,"period_min":109.63339047225,"perigee_km":1208.2757734695,"apogee_km":1211.2669269411,"semimajor_km":7587.9083502053,"source":"CELESTRAK","updated_at":"2026-05-25T13:38:22.388457Z"}}